Find Starlink 34499

NORAD ID: 64709 Int'l Des: 2025-142 Owner: SPXS Country: US Constellation: starlink operational
LEOCIRCULAR

当前视图

正在加载3D地球...

关于 Starlink 34499

正在加载描述...

即将过境

Passes for default location (London). Set your location on the main map for personalized predictions.

高度历史

Loading altitude history...

两行轨道根数

1 64709U 25142P 26146.33516305 .00002937 00000-0 25379-3 0 9995
2 64709 70.0015 118.5690 0003530 256.4254 103.6512 14.98340293 51096
Epoch: May 26, 2026 • Age: 15 hours

当前状态

高度 575.3 km
速度 7.57 km/s
星下点 -10.38°S, 66.53°E
发射日期 Jun 28, 2025
运行时间 0.9 years
类型 internet

技术详情

分类 Payload
质量 575.00 kg
干质量 530.00 kg
总质量 575.00 kg
长度 0.30 m
直径 4.10 m
跨度 29.00 m
形状 Box + pan
制造商 SPXS
平台类型 Starlink V2MO
阶段状态 In Orbit
所有者/国家 SPXS/US

Most Searched